Theta_e
301 300 299 299 300 301 300 300 302 303 303 303 303 303 302 302 302 302 302 305 306 308 310 311 311 311 310 313 319 319 321 323 320 321 322 321 320 318 320 320 321 321 326 326 325 328 330 328 329 330 329 329 327 327
300 300 299 298 299 301 301 299 302 303 303 303 303 303 302 301 302 302 303 304 305 305 310 312 312 312 311 311 313 316 322 322 325 322 325 322 323 319 317 321 319 322 324 326 325 326 327 327 328 328 325 326 327 326
301 300 299 299 298 300 301 300 301 303 303 303 303 302 301 301 302 302 302 302 305 304 306 309 311 314 314 312 314 316 317 317 318 320 322 324 328 321 324 324 321 320 322 323 321 326 326 325 326 325 325 325 325 325
299 299 299 299 299 300 301 300 300 303 303 303 303 302 301 301 302 302 302 302 304 304 307 307 312 311 314 314 314 315 315 314 315 317 319 321 323 317 319 319 319 319 322 321 323 323 324 327 326 324 326 325 323 324
300 300 300 300 299 299 300 300 300 303 303 303 303 301 301 301 301 301 301 302 303 305 307 307 308 313 314 315 313 313 313 314 314 317 318 320 317 317 317 317 318 319 320 321 320 322 323 326 325 324 325 326 324 325
300 301 301 300 300 299 299 299 300 303 303 303 303 302 301 301 301 302 301 305 305 304 307 308 308 309 313 314 313 312 312 313 313 315 316 316 315 317 318 322 319 319 325 321 321 326 324 325 325 325 322 321 324 324
300 300 300 301 300 299 299 299 301 303 303 303 303 302 302 301 301 302 303 306 306 303 307 309 309 308 312 313 310 310 312 313 313 314 315 315 315 315 317 319 318 322 323 323 324 325 324 324 324 322 321 320 320 320
301 300 300 300 300 299 299 299 302 302 303 304 302 302 301 301 301 302 302 304 304 304 306 311 312 312 312 312 313 310 311 311 313 314 314 315 314 315 318 315 320 323 320 323 323 321 321 320 322 323 322 322 321 321
300 300 300 300 299 299 299 301 303 303 304 303 302 301 302 302 302 304 307 305 306 310 312 312 313 318 314 312 311 311 311 316 312 315 315 315 316 319 317 318 322 322 320 320 323 325 323 322 323 321 321 321 320 323
299 300 300 299 299 299 300 303 303 304 304 302 302 303 301 304 307 308 310 307 307 306 308 310 309 313 317 317 314 313 312 314 317 315 312 314 315 318 321 319 318 319 317 316 321 324 323 320 319 322 322 322 323 323
300 300 299 299 299 300 303 304 304 303 301 302 302 305 306 307 307 307 308 309 308 311 307 308 308 310 311 319 322 319 322 319 319 317 317 317 317 323 323 323 320 319 318 320 320 321 319 319 320 322 323 321 319 319
300 299 299 299 300 303 304 304 302 301 302 304 305 306 306 308 307 311 310 309 311 312 309 309 309 309 312 319 319 319 322 320 323 321 322 324 321 321 323 324 323 319 320 321 321 322 323 324 323 321 320 318 316 314
299 299 299 301 303 303 304 302 301 303 304 304 306 308 307 308 309 313 314 314 313 312 313 311 311 311 315 319 321 321 323 322 321 322 326 324 321 322 317 316 315 318 320 321 322 323 321 320 319 318 316 315 313 311
299 300 302 304 304 304 303 301 301 303 303 306 308 305 310 311 310 309 310 314 313 318 318 313 311 314 316 319 318 321 320 322 326 326 326 325 322 320 320 321 319 318 318 320 321 321 320 317 316 315 313 312 311 311
302 303 303 304 303 302 301 301 302 304 305 307 306 307 309 311 313 314 311 312 314 315 315 317 316 315 318 319 318 318 322 323 326 326 325 320 318 319 320 320 319 319 317 318 321 322 319 316 315 313 312 310 309 308
303 303 302 301 301 301 301 301 301 303 305 306 305 307 307 310 311 312 310 313 313 312 313 315 318 318 319 317 321 321 323 324 324 322 321 319 320 319 321 322 321 319 318 318 320 320 319 316 314 313 311 310 309 308
304 304 302 302 301 301 301 303 303 304 307 308 308 306 308 310 311 314 314 314 315 314 317 318 321 320 318 321 322 321 321 320 321 320 318 318 319 320 319 319 319 319 317 318 319 319 318 316 314 313 312 312 311 310
305 303 302 301 301 302 303 304 305 307 306 305 306 306 307 308 310 311 314 315 314 314 317 320 317 321 322 323 322 319 322 319 317 318 319 320 320 320 319 318 318 316 317 318 318 318 318 317 315 315 314 314 313 312
303 302 302 302 304 305 304 304 305 308 308 308 305 305 309 308 308 311 313 314 316 317 318 318 320 321 322 320 322 320 319 318 320 320 318 318 318 317 314 315 315 317 317 317 318 317 315 313 314 315 315 314 311 312
303 302 302 304 305 306 308 307 305 306 308 308 307 308 310 310 310 312 314 317 317 318 319 322 321 321 320 319 320 321 320 320 318 317 314 312 313 314 315 314 315 316 317 316 316 314 313 312 312 311 311 311 309 305
303 302 302 303 304 305 307 307 305 305 305 307 309 311 311 314 315 317 319 318 321 321 323 322 321 320 319 318 318 319 319 316 312 312 312 313 314 315 313 314 316 314 314 313 312 311 311 309 310 310 311 308 307 303
304 303 305 304 304 305 305 304 303 306 307 309 313 310 317 320 321 321 319 320 321 320 320 319 319 318 317 317 319 319 319 315 313 313 313 312 310 308 311 312 312 311 311 310 311 311 310 307 307 309 309 306 304 302
304 303 303 302 301 299 302 306 308 310 313 319 319 321 320 319 318 316 320 319 318 317 317 316 317 317 317 317 317 316 315 315 313 313 312 312 312 313 312 311 310 310 309 311 310 308 306 306 306 306 307 307 304 303
304 307 308 308 305 310 313 317 315 318 318 318 319 319 317 316 314 314 316 316 314 315 316 317 316 314 315 314 314 313 315 314 313 313 314 313 312 312 311 309 309 309 309 309 308 306 306 305 305 305 305 305 304 303
308 309 312 310 317 319 320 319 318 318 319 318 318 318 317 314 314 316 317 317 317 315 313 316 316 315 316 315 314 315 315 315 313 313 314 314 315 312 309 308 308 308 308 307 307 307 306 306 305 305 304 304 304 302
312 317 315 318 318 318 318 320 320 319 319 320 320 318 316 316 316 316 316 316 314 313 313 313 312 311 308 310 309 312 316 315 316 313 310 311 312 312 309 305 305 307 307 307 307 307 306 306 306 305 304 304 304 304
317 320 318 316 315 316 319 318 318 317 319 320 318 319 317 317 318 316 315 315 312 313 313 312 312 311 309 311 311 312 312 313 311 310 310 310 310 310 309 307 306 307 306 306 306 306 305 305 305 305 305 305 305 305
317 317 318 316 316 316 319 318 319 319 318 316 316 319 320 319 315 316 314 313 312 312 313 313 312 311 311 310 311 311 311 310 311 310 309 308 309 309 309 307 307 306 306 306 306 305 304 305 305 305 305 305 305 305
316 316 316 317 317 316 316 316 315 314 313 312 314 314 314 312 314 315 314 314 313 313 312 312 313 311 311 310 310 310 310 310 310 310 310 308 307 309 309 308 308 307 307 307 306 306 305 305 305 305 305 304 306 306
316 315 316 316 318 318 317 314 314 313 312 313 312 311 311 312 313 313 313 313 313 313 312 311 311 312 311 310 309 309 309 309 308 308 305 305 307 308 308 308 308 308 308 308 307 307 306 306 305 305 305 305 306 306
316 315 317 317 316 315 316 314 315 313 313 313 311 311 312 311 313 312 312 313 312 312 311 311 310 310 310 309 310 309 308 308 308 307 307 305 305 306 308 308 307 308 307 308 308 307 307 305 307 307 306 306 306 306
316 317 317 317 316 315 315 316 314 315 314 313 312 311 312 312 313 312 314 312 313 312 311 311 311 310 310 309 309 308 309 309 308 307 306 304 303 303 305 306 306 307 307 307 307 307 307 307 306 306 306 306 306 305
318 318 318 318 319 319 317 316 316 317 317 317 316 315 314 312 313 312 314 313 312 312 312 311 311 311 310 310 309 309 309 309 308 307 305 304 302 303 304 305 306 306 306 306 306 307 307 306 306 306 306 306 306 305
Wind_Speed
15 13 12 12 12 12 12 12 11 11 10 9 9 8 9 9 10 15 12 5 3 3 6 3 3 2 4 3 3 6 3 6 4 4 3 3 2 3 2 3 4 5 4 4 2 3 6 4 3 5 6 4 5 3
16 15 14 14 14 13 12 12 11 10 9 8 8 7 7 7 8 11 6 8 15 5 5 22 26 25 17 21 2 4 2 2 1 4 2 3 1 1 3 2 4 2 5 4 6 5 3 3 6 1 5 6 3 4
16 16 15 14 14 13 12 12 11 9 8 8 8 7 6 6 6 8 11 15 9 3 5 2 5 11 11 22 19 2 3 3 4 3 3 2 3 2 2 1 2 7 1 3 3 4 3 6 3 4 4 6 4 2
17 17 16 15 14 13 12 11 10 9 8 7 7 6 5 6 7 8 10 10 8 4 2 6 14 10 5 11 20 13 4 4 1 3 3 3 2 1 1 3 2 3 5 3 2 3 6 9 7 3 3 3 3 9
18 17 17 15 14 12 12 11 10 9 8 8 7 6 5 6 8 12 15 15 5 2 2 5 23 8 10 9 14 12 6 3 2 3 3 1 1 3 2 2 1 3 2 2 4 2 7 3 4 6 10 5 5 8
18 16 16 16 15 13 11 10 9 9 8 8 7 5 5 6 7 7 3 7 7 8 0 4 6 6 6 10 11 6 5 3 3 3 2 2 3 3 2 2 2 3 5 2 2 5 6 3 6 5 6 4 3 4
15 15 15 15 14 12 11 10 9 8 8 7 6 5 5 6 6 3 4 3 4 15 0 4 4 5 7 4 2 2 3 2 3 2 1 2 1 3 2 3 2 6 5 5 3 6 5 5 1 3 3 1 3 5
14 14 13 13 12 11 10 9 8 7 7 7 6 4 4 6 8 8 9 8 7 4 1 2 4 4 4 2 1 1 2 3 2 3 2 3 1 3 2 5 3 10 6 4 6 5 7 6 3 3 2 2 4 5
11 11 11 12 11 10 9 8 7 6 7 8 5 2 2 3 2 5 8 5 6 0 2 2 2 3 2 2 3 3 3 2 2 3 3 3 2 3 6 6 6 8 7 8 3 4 6 6 3 3 6 6 6 6
9 9 10 10 9 8 7 7 7 9 10 8 4 0 2 5 10 2 3 2 2 2 1 3 3 3 3 2 1 3 1 3 2 5 3 3 4 1 5 7 6 6 6 6 5 4 4 5 6 6 8 7 6 6
7 8 8 8 8 7 6 8 13 14 11 3 2 2 7 8 3 2 1 2 2 3 3 4 6 3 3 2 2 1 3 0 3 4 5 3 2 4 6 5 5 6 4 1 6 4 6 7 7 7 10 12 12 13
8 8 7 7 7 7 11 15 17 9 4 2 1 4 4 1 0 2 3 1 3 4 3 5 5 5 3 2 3 2 2 2 3 1 3 2 3 2 3 5 5 6 7 8 18 13 17 15 15 13 12 13 17 17
8 7 7 6 7 12 15 15 17 3 2 0 1 2 1 2 1 3 3 3 3 4 4 3 2 5 1 3 2 2 2 4 2 2 3 3 2 2 3 3 6 9 12 12 12 18 20 14 16 16 14 15 17 15
8 8 6 8 10 15 15 15 11 2 2 1 1 1 2 3 3 4 2 3 4 3 4 0 2 4 3 4 4 3 4 3 4 4 4 3 5 6 5 4 7 7 8 12 14 17 16 15 16 16 17 15 16 15
9 9 12 13 13 13 14 15 7 3 0 1 1 2 4 4 3 2 2 4 3 4 3 3 3 3 2 2 1 2 1 3 1 4 3 3 5 6 4 4 6 6 7 7 15 15 16 16 16 16 15 15 18 14
14 13 9 12 13 14 12 11 8 2 2 2 3 3 5 4 3 1 2 4 4 1 1 1 0 1 2 3 2 4 2 3 2 1 4 4 4 4 5 6 6 10 10 11 12 16 17 17 16 16 13 10 10 11
4 3 12 13 14 12 11 4 4 3 2 3 3 4 6 6 4 1 2 3 5 3 1 2 1 0 1 2 2 1 3 3 4 4 3 5 6 6 6 7 10 12 13 13 14 16 16 19 20 16 10 10 7 6
5 14 15 14 14 11 5 2 2 2 4 3 2 4 3 2 3 3 4 3 1 2 3 3 3 1 3 4 1 2 1 2 3 4 4 4 4 7 7 7 11 13 13 15 19 15 17 16 14 13 14 12 10 10
7 12 12 14 5 2 4 3 2 2 4 2 3 3 3 3 3 5 6 9 7 6 3 3 2 1 2 2 3 3 3 2 4 4 3 5 5 5 8 11 12 11 16 17 13 13 13 11 7 9 13 9 10 8
9 9 12 11 1 2 2 1 1 2 3 2 3 3 3 3 3 3 7 3 3 3 2 1 2 2 1 2 3 4 4 4 3 3 2 1 5 8 7 6 10 16 16 14 16 16 10 6 4 4 5 1 9 13
5 6 7 7 3 5 2 2 1 2 2 3 2 2 3 2 3 2 2 1 2 3 3 2 3 2 8 12 12 8 4 4 3 4 4 1 2 1 4 11 23 17 15 13 10 9 7 4 1 3 0 12 12 20
4 8 1 4 1 2 2 2 2 2 3 3 3 2 3 1 2 3 0 4 3 3 3 4 4 7 5 3 5 6 4 10 11 12 13 13 4 5 10 17 17 9 7 8 14 13 6 4 6 8 14 12 20 22
3 3 2 2 0 3 5 11 4 4 3 2 2 2 4 5 4 4 4 4 3 4 6 5 7 14 11 13 15 11 11 12 9 9 10 10 7 10 9 13 12 11 10 11 13 13 11 11 14 15 9 6 14 22
7 4 4 5 6 4 3 4 4 4 3 5 8 10 4 2 4 4 4 3 3 4 3 3 10 4 6 7 3 5 7 8 8 7 7 7 4 5 16 13 12 11 12 14 15 13 10 8 6 6 7 11 13 18
1 4 3 3 4 3 3 4 5 5 6 5 4 4 3 4 4 4 4 4 4 3 2 3 4 3 3 1 1 2 6 3 4 2 2 1 4 11 14 15 15 13 10 10 10 10 7 6 7 6 5 7 10 17
2 4 4 4 1 3 3 3 3 2 2 3 2 3 3 3 3 3 3 2 2 3 3 4 3 4 3 6 3 3 6 2 1 6 13 16 9 12 8 7 8 9 7 7 6 4 4 5 6 13 8 5 5 8
5 4 3 2 3 3 4 3 3 4 3 2 1 2 3 3 3 1 2 2 1 2 5 10 11 8 5 3 6 7 6 6 12 16 16 15 15 14 13 10 6 5 8 7 7 8 9 8 8 6 4 10 8 8
2 2 4 6 4 3 4 3 3 2 2 2 3 4 3 2 2 2 2 5 5 5 6 4 10 10 9 14 12 7 4 4 5 9 13 11 8 8 10 8 8 8 5 3 3 2 3 4 3 3 4 6 9 6
3 5 4 6 4 3 3 4 3 3 1 4 4 3 2 0 2 3 8 7 7 3 1 3 8 11 12 15 17 17 14 15 15 8 6 3 4 6 10 6 4 8 9 7 7 4 4 4 3 1 2 5 9 8
5 2 5 6 5 5 2 3 3 3 3 3 3 3 4 4 14 10 18 15 6 2 12 21 17 15 14 14 13 15 13 13 14 13 5 3 5 11 5 6 9 1 8 11 14 14 11 9 6 9 8 3 2 4
2 4 4 4 4 4 3 4 7 7 4 3 2 4 3 1 9 11 12 13 13 17 20 18 16 13 12 12 12 12 7 8 7 5 8 6 4 5 4 3 7 3 3 4 5 9 16 7 6 9 10 7 4 4
3 2 3 3 2 4 5 3 2 3 3 3 1 3 2 3 2 3 3 8 11 10 15 14 10 9 11 8 7 7 7 10 6 3 5 7 8 7 6 2 5 8 7 8 5 6 5 6 6 7 7 8 8 8
2 2 1 1 3 2 0 3 3 5 4 3 3 3 2 3 0 2 12 13 16 15 7 4 7 9 9 8 6 7 9 8 4 1 3 9 5 4 5 3 2 3 3 2 3 5 7 9 8 10 10 10 12 13
Wind_Direction
267 271 280 290 296 303 306 307 309 299 287 291 290 302 314 320 333 341 303 19 319 302 290 247 15 350 339 350 12 302 20 2 32 67 112 204 135 251 124 233 205 186 177 212 108 139 275 200 29 142 201 180 149 129
262 264 274 283 288 290 300 307 308 298 285 280 281 293 305 314 325 333 295 326 334 206 253 296 283 274 235 237 250 324 180 340 140 89 53 89 38 44 141 264 339 333 187 177 166 206 257 357 120 77 118 120 111 112
258 260 268 279 289 282 291 302 300 296 282 274 274 280 294 312 315 323 314 330 344 323 301 318 250 303 261 235 239 114 344 3 359 191 151 142 76 107 66 58 352 332 13 99 70 340 100 62 77 90 102 119 131 64
258 257 263 270 279 280 283 294 294 293 280 272 258 270 281 300 300 307 307 302 321 277 277 284 336 313 275 234 228 223 181 10 47 51 81 95 110 97 205 188 102 226 13 336 48 51 79 15 10 19 78 99 105 72
252 257 258 260 268 277 277 289 290 284 271 262 242 257 278 293 306 300 289 278 266 262 263 286 307 287 318 215 208 202 145 107 57 30 54 205 244 69 345 73 12 14 276 94 223 235 119 235 286 77 70 38 40 135
248 253 253 251 257 266 267 278 280 274 264 247 229 257 281 298 313 331 357 76 122 20 131 311 290 293 314 177 157 139 136 120 110 127 213 291 314 103 118 173 214 80 48 340 122 55 86 118 11 19 88 95 124 118
242 248 250 244 246 256 258 272 273 263 248 230 216 252 278 288 288 232 241 225 331 330 336 310 296 260 234 126 55 74 87 131 119 155 176 194 316 88 120 177 301 89 89 65 87 139 83 58 66 341 105 22 306 308
239 242 234 234 239 247 256 266 264 243 224 204 206 242 271 285 291 283 271 247 254 260 274 274 271 330 129 104 99 149 128 54 358 180 17 166 27 110 225 239 178 144 128 129 132 137 159 165 123 274 28 337 13 2
221 225 224 221 231 239 250 253 241 209 190 180 194 219 270 250 247 248 315 250 204 282 292 302 270 262 2 180 125 20 108 117 258 160 217 114 202 196 219 184 189 186 190 178 191 109 83 82 130 342 16 22 45 15
206 209 209 212 221 229 236 228 195 173 165 156 145 212 281 210 308 114 186 55 30 292 222 232 271 277 76 59 231 125 147 193 150 233 109 145 232 254 211 188 176 182 173 167 86 97 107 96 74 78 74 65 58 37
194 196 194 203 208 214 204 174 161 150 143 170 193 248 307 318 140 10 225 145 190 239 228 229 206 237 320 110 162 239 158 104 127 258 144 209 237 222 202 169 185 198 177 213 87 47 69 107 111 83 82 66 56 50
185 184 189 191 196 185 168 162 156 143 154 169 248 299 311 321 302 240 198 228 182 233 241 183 221 179 264 101 74 360 110 51 220 276 150 179 260 204 140 140 161 155 145 94 94 86 66 60 77 83 83 78 67 61
163 167 169 178 171 168 161 163 169 115 33 148 238 270 30 244 136 230 211 211 213 216 243 172 183 153 293 67 16 78 147 213 101 51 184 202 212 142 128 103 107 130 121 120 105 101 101 97 87 87 79 77 84 77
153 156 149 150 159 158 157 161 162 114 6 15 343 13 241 200 245 222 318 307 267 272 335 53 168 149 181 138 170 147 226 120 191 154 226 175 136 133 109 81 82 109 107 112 117 122 119 110 98 92 95 92 84 68
144 138 133 137 144 150 159 161 140 59 336 253 107 223 238 253 260 253 280 312 316 334 358 6 30 102 36 121 212 102 95 230 157 183 161 141 126 116 111 112 108 99 111 109 125 128 123 114 105 105 106 102 96 93
125 120 127 137 141 146 150 169 193 287 256 258 203 255 257 293 293 20 328 320 306 255 180 91 53 87 121 147 122 198 173 195 223 176 129 130 107 128 128 108 116 117 123 129 139 136 128 130 126 131 130 130 124 119
117 120 152 146 142 143 141 133 189 240 254 234 233 212 257 267 270 266 0 312 314 343 90 10 54 354 346 85 149 40 192 193 136 126 136 121 133 121 115 116 115 119 127 129 131 130 133 142 144 154 163 176 168 171
28 145 150 148 147 143 180 251 252 256 260 266 258 288 324 257 268 271 264 255 243 243 164 181 75 278 171 155 202 220 87 63 101 114 108 118 115 118 142 142 125 115 134 144 141 138 147 156 169 187 189 185 193 220
119 150 149 143 154 207 181 230 194 272 242 266 296 283 264 258 247 255 277 275 250 216 115 124 171 185 186 186 144 131 125 139 125 133 147 156 142 143 126 119 121 114 134 137 140 149 147 145 159 167 200 186 187 177
138 159 168 177 282 314 249 171 184 269 280 314 273 260 266 276 281 294 309 237 177 139 45 85 78 332 47 52 69 112 99 97 97 96 78 54 108 108 155 173 157 132 127 122 135 132 144 138 122 124 143 124 163 141
130 163 185 213 257 227 282 154 267 253 277 251 275 243 296 270 240 246 238 2 94 201 169 139 117 105 105 129 145 138 139 107 137 138 159 96 10 6 49 91 127 128 138 148 143 141 157 150 55 315 138 134 141 140
107 151 73 207 327 329 311 231 215 238 217 244 201 209 217 176 94 94 117 60 49 9 70 96 89 105 105 114 156 179 150 131 109 106 105 107 83 61 95 116 112 119 134 146 149 155 159 98 45 76 146 137 139 141
174 200 173 246 81 238 242 173 211 221 235 261 356 72 36 35 359 15 54 21 38 22 67 66 68 99 102 110 106 100 107 97 79 106 102 97 85 70 126 111 105 99 109 128 140 125 97 84 80 74 107 174 134 161
219 236 216 185 199 257 206 209 209 206 144 67 79 84 46 33 356 42 58 13 309 334 49 96 101 64 52 60 72 100 101 106 116 110 106 88 38 27 130 119 99 111 120 128 133 131 117 100 95 83 82 84 118 162
229 257 211 249 208 286 53 47 53 61 78 58 62 49 18 43 35 30 21 343 1 39 30 89 95 112 134 112 123 167 156 133 132 77 90 288 313 126 122 111 102 98 108 119 131 147 149 158 145 114 85 87 72 157
253 199 187 12 39 68 9 36 33 81 76 73 94 144 95 89 54 41 331 307 340 49 40 83 104 84 51 102 116 90 149 175 50 65 78 84 93 156 124 102 85 72 99 91 87 137 173 190 169 191 168 135 114 137
18 346 316 349 85 41 32 23 43 66 63 87 159 90 93 76 76 310 287 281 116 37 85 98 92 117 138 143 151 146 133 126 108 118 107 98 102 117 121 119 131 113 106 94 88 79 77 76 66 80 168 213 222 214
278 342 4 321 21 30 61 45 34 10 349 10 55 40 66 83 203 248 223 170 100 92 38 138 148 123 95 75 81 96 45 54 145 133 112 109 121 127 127 119 138 152 145 151 107 63 115 96 68 64 52 43 30 31
355 324 41 32 48 41 42 61 51 12 2 58 83 69 76 202 166 150 175 154 154 72 347 26 135 133 107 94 84 74 69 64 68 91 77 40 352 161 178 169 191 197 202 205 203 206 187 201 216 244 326 11 22 99
330 30 49 40 48 48 3 109 104 99 70 102 98 53 49 50 79 84 55 59 101 43 85 87 92 92 118 113 100 85 77 79 79 86 91 62 17 27 62 75 35 227 210 238 241 234 232 248 283 280 249 265 103 78
47 52 50 43 23 360 90 96 71 83 84 88 85 103 126 95 71 59 62 63 67 93 97 94 91 97 103 101 120 128 107 103 99 74 22 5 308 265 265 32 41 24 236 295 321 244 235 253 146 128 141 156 187 236
12 41 67 53 357 344 40 67 101 96 97 80 63 67 57 62 37 308 41 80 51 96 137 125 120 122 138 124 130 130 161 167 168 83 18 351 320 267 252 224 53 57 78 83 87 117 135 155 179 180 195 210 232 248
49 32 118 89 12 27 217 98 21 34 65 60 52 105 102 117 159 320 53 78 78 69 78 118 161 155 157 140 145 166 175 179 175 151 27 19 34 72 89 105 88 50 11 326 313 310 298 251 259 235 223 242 260 267